Regional Weather Roundup
Issued by NWS Charleston, SC

Current Version | Previous Version | Graphics & Text | Print | Product List | Glossary On
Versions: 1 2 3 4 5 6 7 8 9 10 11 12 13 14 15 16 17 18 19 20 21 22 23 24 25 26 27 28 29 30 31 32 33 34 35 36 37 38 39 40 41 42 43 44 45 46 47 48 49 50
000 ASUS42 KCHS 200425 RWRCHS REGIONAL WEATHER ROUNDUP NATIONAL WEATHER SERVICE CHARLESTON SC 1100 PM EST FRI DEC 19 2014 NOTE: "FAIR" INDICATES FEW OR NO CLOUDS BELOW 12,000 FEET WITH NO SIGNIFICANT WEATHER AND/OR OBSTRUCTIONS TO VISIBILITY. NOT ALL STATIONS ARE QUALITY CONTROLLED BY THE NATIONAL WEATHER SERVICE. USE DATA WITH CAUTION...ESPECIALLY DEWPOINT OBSERVATIONS. SCZ027-030-031-034>040-042>050-200500- ...SOUTHEAST SOUTH CAROLINA... CITY SKY/WX TMP DP RH WIND PRES REMARKS N CHARLESTON CLOUDY 48 42 80 NE3 30.15S WATERFRONT PRK N/A 52 N/A N/A N6 N/A MOUNT PLEASANT FAIR 46 46 100 CALM 30.15F PINOPOLIS N/A 52 43 71 CALM 30.07S MONCKS CORNER FAIR 50 43 76 CALM 30.16S SUMMERVILLE NOT AVBL BEAUFORT MCAS CLOUDY 53 48 83 CALM 30.16R BEAUFORT ARPT FAIR 52 50 93 CALM 30.16R HILTON HEAD IS CLOUDY 52 52 100 CALM 30.17R WALTERBORO CLOUDY 48 N/A N/A CALM 30.16S ALLENDALE CLOUDY 48 46 93 CALM 30.16R ...SOUTHERN MIDLANDS AND PEE DEE... CITY SKY/WX TMP DP RH WIND PRES REMARKS GEORGETOWN NOT AVBL KINGSTREE NOT AVBL ORANGEBURG CLOUDY 50 42 74 E3 30.15R BARNWELL FAIR 52 46 82 CALM 30.17R AIKEN FAIR 48 43 81 CALM 30.20R MANNING NOT AVBL COLUMBIA CLOUDY 46 40 79 CALM 30.16R SUMTER MOCLDY 43 36 75 N6 30.16R FLORENCE CLOUDY 45 34 65 CALM 30.18R MYRTLE BEACH CLOUDY 45 37 76 N5 30.18S N MYRTLE BEACH MOCLDY 45 40 82 NE3 30.18R $$ GAZ063-065-086>088-099>101-113>116-118-119-134>141-150-200500- ...SOUTHEAST GEORGIA... CITY SKY/WX TMP DP RH WIND PRES REMARKS SAVANNAH ARPT CLOUDY 51 46 83 CALM 30.16R HUNTER AAF CLOUDY 50 47 89 W3 30.14R FORT STEWART CLOUDY 49 46 88 CALM 30.14R STATESBORO CLOUDY 47 47 100 CALM 30.15S SYLVANIA CLOUDY 48 47 94 CALM 30.17R CLAXTON CLOUDY 46 46 100 CALM 30.15S ...CSRA...CENTRAL AND FAR SOUTHEAST GEORGIA... CITY SKY/WX TMP DP RH WIND PRES REMARKS THOMSON CLOUDY 49 46 91 CALM 30.19S AUGUSTA-BUSH CLOUDY 48 42 80 E3 30.15R AUGUSTA-DANIEL CLOUDY 53 42 66 CALM 30.15R SWAINSBORO LGT RAIN 50 50 100 CALM 30.15S VIDALIA CLOUDY 50 46 87 CALM 30.13F EASTMAN LGT RAIN 49 49 100 CALM 30.16S HAZLEHURST MOCLDY 52 49 90 NE3 30.12F ALMA CLOUDY 52 44 74 CALM 30.13F WAYCROSS RAIN 55 51 85 CALM 30.12F JESUP LGT RAIN 54 50 87 CALM 30.14F BAXLEY CLOUDY 52 46 82 CALM 30.13F BRUNSWICK CLOUDY 54 46 76 CALM 30.15S SAINT SIMONS CLOUDY 54 48 80 N5 30.14S $$ SCZ027-028-034-036>038-045-046-048>050-GAZ119-141-200500- ...LAKE AND SUPPLEMENTAL COASTAL OBSERVATIONS... STATION/POSITION TIME TEMP WIND PRES WAVE SWELL AIR SEA DIR/SP/G HT/PER HT/PER/DIR (UTC) (F) (DEG/KT/KT) (MB) (FT/S) (FT/S/D) UPR LAKE MARION NOT AVBL WINYAH BAY 0400 49 20/ 3 1021.0S LAKE MURRAY 0400 51 40/ 1/ 3 1020.7S ACE BASIN NERRS 0400 49 CALM 1020.0S FORT PULASKI 0400 52 56 310/ 3/ 4 1021.4R SAPELO ISLAND 0400 52 40/ 3 1020.0F $$ ANZ835-935-AMZ111-154-330-350-352-354-370-450-454-472-200500- ...C-MAN AND BUOY OBSERVATIONS... STATION/POSITION TIME TEMP WIND PRES WAVE SWELL AIR SEA DIR/SP/G HT/PER HT/PER/DIR (UTC) (F) (DEG/KT/KT) (MB) (FT/S) (FT/S/D) BUOY 41004 0400 64 68 50/ 4/ 8 1020.3R 2/10 2/10 BUOY 41008 0400 58 58 10/ 4/ 4 1020.7R 1/10 2/100/10 FOLLY BEACH CMAN 0400 55 50/ 9/ 10 1021.3S CAPERS NEARSHORE 0300 56 60/ 12/ 16 N/A FRIPP NEARSHORE NOT AVBL STATION/POSITION TIME TEMP WIND PRES WAVE SWELL AIR SEA DIR/SP/G HT/PER HT/PER/DIR (UTC) (F) (DEG/KT/KT) (MB) (FT/S) (FT/S/D) 5E ST. MARYS GA 0400 60 N/A 1/11 FRYING PAN BUOY 0400 57 60 60/ 10/ 14 1022.4R 2/11 2/120/11 BUOY 41025 0400 46 1023.2R 3/ 5 CAPE LOOKOUT NC 0400 46 20/ 7/ 8 1022.9R BUOY 41002 0345 66 72 10/ 6/ 10 1020.6F 2/10 2/ 90/10 BUOY 41010 0400 71 76 100/ 4/ 6 1019.7F 2/11 2/ 70/11 ST AUGUSTINE FL 0400 61 360/ 4/ 5 1019.9F $$

USA.gov is the U.S. government's official web portal to all federal, state and local government web resources and services.